This demonstration page uses our WeatherBlox Daily Observations layout. Learn more.

Left ArrowRight Arrow

39.51506, -84.39828

Hourly Observations for April 1, 2018

Temp ( °F °C ) Dew Point ( °F °C ) Humidity (%) Winds ( mph kmh ) Pressure ( in mb ) Visibility ( mi km ) Precip ( " mm )
12:15 am 00:15 Cloudy 49 9.2 46 7.7 90 90 SW 10 17 30.06 1018 10 16 0.00 0.00
12:35 am 00:35 Cloudy 49 9.2 46 7.7 90 90 SW 9 15 30.06 1018 10 16 0.00 0.00
12:55 am 00:55 Cloudy 49 9.2 46 7.8 91 91 SW 9 15 30.06 1018 10 16 0.00 0.00
1:15 am 01:15 Cloudy 49 9.2 46 7.8 91 91 SW 10 17 30.06 1018 10 16 0.00 0.00
1:35 am 01:35 Cloudy 48 9.1 46 7.9 92 92 SW 8 13 30.06 1018 10 16 0.00 0.00
1:55 am 01:55 Cloudy 49 9.2 46 8 92 92 WSW 7 11 30.06 1018 10 16 0.00 0.00
2:15 am 02:15 Cloudy 49 9.3 46 8 92 92 WSW 6 9 30.06 1018 10 16 0.00 0.00
2:35 am 02:35 Cloudy with Drizzle 49 9.3 47 8.3 94 94 W 5 7 30.09 1019 7 11 0.00 0.00
2:55 am 02:55 Cloudy 48 9 45 7.4 90 90 NW 23 37 30.09 1019 10 16 0.00 0.00
3:15 am 03:15 Cloudy 44 6.7 40 4.2 84 84 N 10 17 30.09 1019 10 16 0.00 0.00
3:35 am 03:35 Cloudy 43 5.9 37 3 82 82 N 10 17 30.12 1020 10 16 0.00 0.00
3:55 am 03:55 Cloudy 41 5.1 36 2.2 82 82 NNE 15 24 30.12 1020 10 16 0.00 0.00
4:15 am 04:15 Cloudy 40 4.6 33 0.4 74 74 N 13 20 30.15 1021 10 16 0.00 0.00
4:35 am 04:35 Cloudy 40 4.4 33 0.6 77 77 N 9 15 30.15 1021 10 16 0.00 0.00
4:55 am 04:55 Cloudy 39 3.9 31 -0.4 74 74 N 14 22 30.15 1021 10 16 0.00 0.00
5:15 am 05:15 Cloudy 38 3.4 30 -1.3 72 72 N 9 15 30.18 1022 10 16 0.00 0.00
5:35 am 05:35 Mostly Cloudy 37 3 29 -1.4 73 73 NNE 9 15 30.18 1022 10 16 0.00 0.00
5:55 am 05:55 Partly Cloudy 37 2.5 27 -2.7 69 69 N 9 15 30.18 1022 10 16 0.00 0.00
6:15 am 06:15 Cloudy 36 2.2 27 -2.7 70 70 N 7 11 30.18 1022 10 16 0.00 0.00
6:35 am 06:35 Partly Cloudy 35 1.8 28 -2.5 73 73 N 7 11 30.21 1023 10 16 0.00 0.00
6:55 am 06:55 Clear 35 1.7 27 -2.8 72 72 N 6 9 30.21 1023 10 16 0.00 0.00
7:15 am 07:15 Clear 35 1.4 27 -2.9 73 73 N 5 7 30.21 1023 10 16 0.00 0.00
7:35 am 07:35 Sunny 35 1.4 26 -3.1 72 72 N 7 11 30.21 1023 10 16 0.00 0.00
7:55 am 07:55 Sunny 34 1.2 27 -2.6 76 76 N 6 9 30.24 1024 10 16 0.00 0.00
8:15 am 08:15 Sunny 35 1.6 27 -2.8 73 73 N 6 9 30.24 1024 10 16 0.00 0.00
8:35 am 08:35 Sunny 36 2.1 27 -2.8 70 70 NNE 6 9 30.24 1024 10 16 0.00 0.00
8:55 am 08:55 Sunny 37 2.5 26 -3.2 66 66 N 8 13 30.27 1025 10 16 0.00 0.00
9:15 am 09:15 Sunny 37 3 27 -2.9 66 66 N 10 17 30.27 1025 10 16 0.00 0.00
9:35 am 09:35 Partly Cloudy 38 3.4 28 -2.4 66 66 NNE 10 17 30.24 1024 10 16 0.00 0.00
9:55 am 09:55 Partly Cloudy 38 3.6 28 -2.4 65 65 NNE 12 19 30.27 1025 10 16 0.00 0.00
10:15 am 10:15 Mostly Cloudy 38 3.4 28 -2.5 66 66 N 8 13 30.27 1025 10 16 0.00 0.00
10:35 am 10:35 Mostly Cloudy 38 3.5 28 -2.3 66 66 N 12 19 30.27 1025 10 16 0.00 0.00
10:55 am 10:55 Partly Cloudy 39 3.9 28 -2.3 64 64 NNE 3 6 30.27 1025 10 16 0.00 0.00
11:15 am 11:15 Sunny 40 4.2 28 -2.3 63 63 N 5 7 30.27 1025 10 16 0.00 0.00
11:35 am 11:35 Sunny 41 4.8 29 -1.8 63 63 NNW 6 9 30.27 1025 10 16 0.00 0.00
11:55 am 11:55 Mostly Cloudy 41 5.2 29 -1.8 61 61 NNE 6 9 30.27 1025 10 16 0.00 0.00
12:15 pm 12:15 Partly Cloudy 42 5.3 29 -1.5 62 62 NNE 7 11 30.27 1025 10 16 0.00 0.00
12:35 pm 12:35 Sunny 43 5.9 28 -2 57 57 N 6 9 30.24 1024 10 16 0.00 0.00
12:55 pm 12:55 Sunny 43 6 28 -2.4 55 55 Calm 30.21 1023 10 16 0.00 0.00
1:15 pm 13:15 Sunny 44 6.6 29 -1.8 55 55 NNE 5 7 30.21 1023 10 16 0.00 0.00
1:35 pm 13:35 Sunny 45 7 29 -1.9 53 53 NW 7 11 30.21 1023 10 16 0.00 0.00
1:55 pm 13:55 Sunny 46 7.5 28 -2.1 51 51 NW 6 9 30.21 1023 10 16 0.00 0.00
2:15 pm 14:15 Sunny 46 7.5 28 -2.4 50 50 Calm 30.18 1022 10 16 0.00 0.00
2:35 pm 14:35 Partly Cloudy 47 8.1 26 -3.4 44 44 N 5 7 30.18 1022 10 16 0.00 0.00
2:55 pm 14:55 Cloudy 47 8.5 28 -2 48 48 N 8 13 30.18 1022 10 16 0.00 0.00
3:15 pm 15:15 Mostly Cloudy 47 8.4 27 -2.6 46 46 NNW 7 11 30.18 1022 10 16 0.00 0.00
3:35 pm 15:35 Cloudy 46 8 26 -3.3 45 45 NNE 6 9 30.18 1022 10 16 0.00 0.00
3:55 pm 15:55 Cloudy 47 8.2 26 -3.4 44 44 NW 8 13 30.15 1021 10 16 0.00 0.00
4:15 pm 16:15 Partly Cloudy 47 8.3 26 -3.1 45 45 N 9 15 30.15 1021 10 16 0.00 0.00
4:35 pm 16:35 Sunny 47 8.3 26 -3.2 44 44 NW 7 11 30.15 1021 10 16 0.00 0.00
4:55 pm 16:55 Mostly Cloudy 47 8.5 26 -3.2 44 44 N 8 13 30.15 1021 10 16 0.00 0.00
5:15 pm 17:15 Sunny 46 7.9 26 -3.3 45 45 N 10 17 30.15 1021 10 16 0.00 0.00
5:35 pm 17:35 Partly Cloudy 46 8 27 -2.8 47 47 NE 12 19 30.15 1021 10 16 0.00 0.00
5:55 pm 17:55 Partly Cloudy 46 7.7 26 -3.3 46 46 NE 3 6 30.12 1020 10 16 0.00 0.00
6:15 pm 18:15 Sunny 46 7.5 27 -2.9 48 48 N 8 13 30.12 1020 10 16 0.00 0.00
6:35 pm 18:35 Sunny 45 7.2 26 -3.2 48 48 N 9 15 30.12 1020 10 16 0.00 0.00
6:55 pm 18:55 Mostly Cloudy 44 6.9 27 -2.6 51 51 N 8 13 30.09 1019 10 16 0.00 0.00
7:15 pm 19:15 Mostly Cloudy 44 6.5 27 -2.8 52 52 NNE 13 20 30.09 1019 10 16 0.00 0.00
7:35 pm 19:35 Cloudy 43 6.1 26 -3.5 51 51 NNE 9 15 30.09 1019 10 16 0.00 0.00
7:55 pm 19:55 Cloudy with Light Rain 50 9.9 44 6.9 82 82 SW 12 19 30.06 1018 10 16 0.05 1.27
8:15 pm 20:15 Cloudy 42 5.6 26 -3.1 54 54 N 7 11 30.12 1020 10 16 0.00 0.00
8:35 pm 20:35 Cloudy 42 5.3 27 -2.8 56 56 N 9 15 30.09 1019 10 16 0.00 0.00
8:55 pm 20:55 Cloudy 41 5 26 -3.4 55 55 N 8 13 30.09 1019 10 16 0.00 0.00
9:15 pm 21:15 Cloudy 41 5 25 -3.7 54 54 N 10 17 30.09 1019 10 16 0.00 0.00
9:35 pm 21:35 Cloudy 39 3.9 28 -2.4 64 64 N 12 19 30.12 1020 10 16 0.00 0.00
9:55 pm 21:55 Cloudy 38 3.1 30 -1 75 75 N 12 19 30.15 1021 10 16 0.00 0.00
10:15 pm 22:15 Cloudy with Light Rain 36 2 31 -0.6 83 83 N 9 15 30.15 1021 7 11 0.00 0.00
10:35 pm 22:35 Cloudy with Light Snow 33 0.7 32 -0.1 94 94 N 5 7 30.15 1021 2 3 0.01 0.25
10:55 pm 22:55 Cloudy with Light Snow 33 0.4 32 -0.1 96 96 NNE 5 7 30.15 1021 2 3 0.03 0.76
11:15 pm 23:15 Cloudy with Snow 33 0.3 32 0 98 98 N 3 6 30.15 1021 1 2 0.02 0.51
11:35 pm 23:35 Cloudy with Light Snow 33 0.4 32 0.1 98 98 N 5 7 30.15 1021 3 4 0.03 0.76
11:55 pm 23:55 Cloudy with Light Snow 33 0.4 32 0 97 97 NNE 5 7 30.15 1021 2 2 0.05 1.27

Powered by AerisWeather